Theta_e
292 292 288 286 287 287 287 286 286 287 287 286 287 287 291 293 291 292 292 292 292 293 294 295 297 301 302 303 302 302 301 301 300 299 298 298 298 298 297 297 297 296 295 295
294 286 287 288 288 288 287 285 285 287 286 285 285 285 289 289 289 290 291 293 292 293 294 294 295 298 301 301 302 301 301 300 299 300 299 300 300 299 299 298 296 296 295 295
289 286 288 287 286 286 284 284 282 282 285 283 283 287 287 288 289 290 291 292 293 292 292 294 295 296 300 300 301 300 300 300 299 299 297 296 296 296 296 296 296 295 294 294
287 287 286 286 283 284 284 283 282 281 283 282 282 282 286 286 288 290 290 291 292 293 294 294 294 296 297 300 301 301 300 299 299 298 297 296 297 296 297 297 297 295 293 293
283 284 285 284 282 284 282 283 281 279 280 279 280 281 286 287 287 288 288 288 289 292 292 293 294 295 296 298 300 300 300 299 298 298 298 298 297 297 297 296 295 295 294 293
284 286 285 284 284 284 284 281 280 280 281 280 272 276 283 285 284 286 288 288 289 290 292 293 294 295 295 296 296 297 296 296 297 297 297 296 296 296 295 295 294 295 294 293
282 282 284 285 282 284 281 281 280 278 279 278 268 276 284 285 285 285 285 287 289 290 291 292 292 293 294 295 295 295 294 295 295 296 296 296 296 296 295 295 295 294 292 292
282 279 282 283 282 281 279 280 280 272 275 277 269 276 282 284 285 286 287 288 289 290 290 291 291 292 292 293 294 294 294 293 294 294 294 295 295 295 295 294 294 292 291 291
280 278 281 282 282 281 280 281 277 272 263 274 277 280 283 284 283 285 286 287 287 288 289 290 291 291 291 291 292 292 293 294 294 294 294 294 294 294 293 293 293 292 291 290
279 278 277 280 282 281 280 279 278 278 272 272 275 273 282 280 281 281 283 283 284 286 288 289 289 290 291 291 291 292 292 291 292 293 293 293 293 293 293 292 291 291 290 290
280 280 276 279 278 279 278 278 276 278 276 275 274 279 286 285 282 279 280 282 282 283 286 287 288 289 290 291 291 291 291 291 291 292 293 293 292 292 291 290 291 290 290 289
282 280 277 278 279 280 279 280 280 277 273 273 273 277 285 281 279 279 280 281 283 285 285 286 287 288 288 289 289 290 291 291 291 291 291 291 291 291 290 289 290 290 289 289
283 278 276 275 276 278 277 278 277 276 276 273 275 278 277 277 277 279 279 280 282 283 285 286 286 286 286 287 287 288 289 290 291 291 291 290 290 290 289 289 289 289 288 288
285 278 276 277 276 277 275 277 277 277 276 276 276 280 280 278 277 278 279 280 281 281 282 284 284 285 286 285 286 287 288 289 290 290 289 288 289 289 290 289 289 288 288 288
283 277 276 276 274 273 276 275 275 272 277 276 277 277 279 279 276 277 277 279 280 280 282 283 284 284 284 284 285 285 286 287 288 288 286 286 287 288 289 289 288 288 287 287
281 276 273 273 274 275 273 276 275 275 276 274 276 276 279 276 274 276 278 279 278 280 281 282 283 283 283 283 284 285 285 285 286 285 284 284 285 285 285 286 286 287 286 286
279 276 272 272 269 269 270 273 275 277 277 277 273 278 275 275 276 277 278 279 279 280 280 281 282 282 283 283 284 284 285 286 285 283 282 281 281 282 283 284 285 284 285 285
277 276 275 272 269 267 275 276 276 276 278 275 274 274 275 275 277 278 279 278 279 279 280 281 282 281 283 284 283 283 284 284 283 282 281 281 278 278 281 282 282 283 284 284
281 278 273 270 267 272 276 275 275 275 276 277 275 275 276 278 278 279 281 281 280 281 282 282 283 282 283 282 283 283 283 283 282 280 281 282 278 276 278 278 280 283 283 284
276 279 276 267 267 266 273 276 278 278 272 276 276 276 276 277 272 277 281 281 281 282 283 283 284 284 284 284 285 283 282 282 283 283 284 283 278 276 276 279 280 283 283 284
272 273 272 271 270 273 277 277 278 270 272 277 277 277 277 275 277 280 281 281 282 282 283 284 284 283 283 284 284 282 282 282 283 284 284 282 278 276 277 278 281 282 282 284
270 270 269 272 269 266 277 275 273 277 278 278 278 278 277 278 279 279 280 280 281 281 282 283 282 282 283 284 282 281 281 283 283 283 283 283 280 278 278 278 280 281 282 281
269 274 273 274 273 276 278 278 280 279 278 278 278 279 279 278 278 279 279 280 280 281 281 282 282 281 282 282 281 279 281 281 281 282 282 283 280 277 277 277 278 280 280 279
272 274 272 273 277 277 278 280 280 280 279 280 280 280 279 278 279 279 279 279 279 280 280 281 280 279 279 280 279 279 280 280 279 280 282 284 280 278 276 277 279 280 278 279
276 273 272 273 276 277 278 279 280 280 281 280 280 280 279 279 279 279 279 279 279 280 280 280 279 278 278 279 278 278 278 277 278 280 281 283 281 278 276 276 278 279 281 282
275 275 272 272 278 277 278 281 281 280 279 280 279 278 279 279 279 280 279 279 279 278 279 279 279 278 278 277 276 276 276 276 277 279 281 283 282 278 276 276 276 280 281 282
Wind_Speed
4 5 5 4 4 3 3 1 2 2 5 8 4 15 18 12 8 6 6 6 6 8 6 8 7 9 11 10 11 11 11 11 8 6 5 4 5 4 4 4 4 3 2 1
4 5 2 1 3 4 4 1 3 2 4 5 7 19 8 5 5 6 7 8 9 10 9 8 4 5 9 10 10 10 10 11 9 6 3 2 2 2 2 3 4 3 3 1
5 3 2 2 6 2 5 3 2 3 9 1 14 5 5 4 5 6 6 6 9 11 11 10 7 1 5 8 10 10 11 11 10 8 4 3 2 1 3 4 4 3 3 3
6 3 2 4 4 3 2 1 1 3 5 3 8 3 4 5 8 13 13 13 11 12 12 10 9 5 1 4 5 7 8 9 8 8 5 6 5 6 3 3 2 3 4 4
3 3 4 4 3 3 4 2 3 2 2 2 5 2 3 1 8 11 15 14 14 11 11 12 10 8 7 4 2 3 5 6 6 6 5 5 7 6 4 4 5 5 4 5
5 2 4 3 2 3 6 2 3 2 1 2 3 5 5 5 6 8 11 14 13 12 12 11 9 8 7 5 4 3 0 2 3 5 6 8 9 8 6 6 5 5 4 4
1 3 2 3 2 2 2 2 1 1 0 1 1 4 3 7 9 5 11 15 14 13 13 12 11 9 7 6 5 4 4 4 4 5 6 7 9 9 10 8 6 6 5 4
3 3 3 5 3 2 2 1 1 3 2 2 1 5 7 4 6 10 11 12 13 16 14 14 14 11 10 9 7 5 5 6 6 7 8 8 9 7 7 8 6 5 5 5
4 2 1 4 3 3 3 1 2 7 2 2 1 4 3 9 2 9 12 15 15 14 13 13 13 12 12 11 11 9 9 10 10 10 9 10 9 10 9 9 8 6 6 5
3 2 1 1 2 5 3 5 3 1 3 5 3 6 5 11 8 4 12 12 11 12 12 12 11 11 11 10 10 10 10 11 12 11 10 9 10 10 10 9 11 10 8 7
4 1 3 2 6 4 4 2 3 1 2 3 3 4 4 9 10 6 6 6 6 5 8 8 8 9 9 10 11 11 11 11 11 11 11 11 10 10 10 11 11 11 9 8
2 2 3 2 1 2 3 2 5 4 5 1 3 8 2 6 8 5 4 4 6 5 5 5 7 9 11 12 12 12 12 12 12 12 11 12 12 11 12 13 12 11 11 9
6 0 1 3 2 2 5 5 3 3 1 8 4 3 4 5 4 3 2 3 5 6 7 5 6 8 10 12 12 13 13 13 12 12 12 12 13 14 15 14 13 12 11 10
4 3 4 4 2 3 5 6 8 5 5 5 17 6 5 7 2 1 3 5 7 7 7 7 7 7 9 9 10 10 12 11 12 12 12 14 14 14 15 14 14 13 12 11
2 5 3 6 5 4 7 6 10 13 12 12 15 11 6 5 6 7 8 9 10 10 10 9 8 8 9 11 12 11 11 10 9 9 10 12 13 14 14 14 14 13 12 11
1 2 1 5 6 6 14 14 16 18 17 15 21 31 5 4 3 5 8 8 9 9 10 10 10 11 13 12 13 12 12 13 11 11 13 12 13 13 13 14 14 13 14 12
5 5 2 4 4 8 12 17 19 11 8 14 16 8 4 2 6 7 8 10 10 11 11 12 14 14 13 14 14 14 14 13 13 12 11 12 12 14 14 13 13 13 13 11
7 4 2 4 3 8 2 2 2 11 11 11 5 3 4 6 7 10 11 10 10 11 13 14 13 13 14 15 14 14 14 13 13 14 12 12 10 12 13 12 14 13 10 11
5 5 3 4 4 12 11 5 7 8 4 7 6 4 6 7 10 10 7 7 10 13 14 13 13 13 13 14 13 14 15 14 14 12 13 13 9 10 11 12 13 12 9 9
4 4 7 4 5 8 3 3 1 2 10 11 1 4 7 7 11 11 9 13 18 18 17 17 18 16 16 16 15 16 18 16 16 15 15 11 8 9 12 12 12 10 8 9
5 5 14 10 9 10 8 6 4 4 1 5 3 7 9 12 13 17 15 15 16 17 18 19 18 17 17 16 15 18 18 18 16 16 15 11 8 9 11 11 10 9 9 8
8 9 7 8 6 14 7 7 8 3 4 4 6 9 13 16 16 16 17 18 19 20 19 18 16 17 17 15 14 19 20 17 17 17 16 13 8 8 8 11 9 10 9 10
5 7 5 11 9 2 9 2 4 3 5 8 9 12 14 15 15 15 17 17 19 20 17 16 16 18 18 15 14 19 18 17 18 19 17 14 9 8 8 11 10 9 10 10
6 6 5 1 6 12 12 9 9 9 13 12 10 12 12 15 13 13 15 15 17 17 17 15 16 17 20 16 15 17 16 15 19 19 18 14 9 8 8 8 8 9 10 10
3 8 6 10 11 12 13 13 12 9 12 12 13 11 14 14 14 15 15 18 18 18 17 15 15 16 20 19 18 15 14 16 19 18 16 15 8 8 8 10 9 11 11 12
8 11 9 11 10 11 12 9 8 11 14 15 17 15 14 13 15 17 16 17 18 18 18 18 19 18 20 19 19 17 14 16 19 16 13 11 8 7 6 7 8 19 18 18
Wind_Direction
30 76 75 54 28 49 86 83 330 67 24 319 320 296 293 324 306 327 11 24 354 328 322 306 266 222 206 197 191 187 182 180 173 175 184 213 221 204 211 211 207 222 238 274
65 79 38 63 53 77 53 63 19 291 18 317 334 295 341 23 16 357 353 4 359 347 352 357 329 203 198 189 191 187 189 183 189 192 198 218 189 199 222 201 212 222 223 258
87 79 322 159 53 104 52 55 31 316 325 87 321 263 40 47 39 33 32 10 13 7 356 2 10 204 180 187 184 186 188 188 191 191 159 150 151 204 224 217 220 212 237 263
70 10 113 101 82 337 142 45 17 354 345 327 358 297 61 17 71 50 31 24 13 12 14 17 18 34 42 189 187 188 184 185 189 185 201 221 245 259 261 253 220 223 241 253
68 24 44 63 37 339 92 63 62 61 83 276 25 248 86 12 19 23 26 18 13 14 18 20 23 27 33 39 93 171 177 178 178 190 225 238 251 262 267 244 244 239 240 243
82 63 29 33 60 39 127 107 78 108 150 165 19 340 71 28 343 338 7 14 17 16 19 24 27 26 40 49 46 31 240 195 194 214 229 244 256 259 252 242 243 244 244 243
31 31 15 352 191 148 161 207 300 207 83 36 23 266 11 353 5 17 44 47 45 37 27 19 17 14 11 6 2 357 331 280 266 265 263 258 259 258 257 253 245 248 251 248
170 204 14 2 351 353 50 293 164 274 258 345 167 227 147 80 77 72 68 51 32 33 29 26 19 11 3 351 333 298 269 274 264 259 260 256 250 246 242 241 239 244 247 255
146 185 24 20 338 327 151 167 60 102 59 253 297 258 324 153 121 67 49 41 30 21 20 19 16 15 8 360 351 324 300 283 276 274 269 255 244 238 238 237 238 238 239 244
143 133 139 284 279 51 310 123 132 87 203 244 208 282 207 197 170 45 36 24 12 1 7 15 15 11 9 6 356 350 330 301 291 284 272 264 253 240 237 230 224 225 228 230
138 252 132 226 201 180 153 187 58 343 294 253 260 232 206 170 127 90 45 10 330 320 5 3 3 4 5 5 3 355 351 333 315 301 284 272 262 249 239 237 234 228 223 218
144 131 208 209 87 302 295 262 206 217 190 231 326 262 66 121 127 78 48 6 338 337 314 320 345 349 355 355 351 345 343 335 331 322 303 285 269 252 241 237 233 229 227 217
172 210 252 201 170 204 237 194 177 76 26 206 228 222 118 114 126 173 356 345 337 310 314 314 322 331 334 332 330 331 329 326 324 321 315 297 279 262 248 239 234 224 223 222
165 171 225 255 65 95 207 205 207 199 209 207 232 221 197 181 85 297 338 338 324 317 296 288 298 316 321 317 312 307 306 307 311 311 302 294 277 266 253 245 236 230 220 221
192 228 237 268 236 229 242 213 197 208 218 223 271 227 238 323 346 350 330 323 321 317 315 308 292 302 307 306 309 307 300 297 290 296 289 283 278 269 259 244 225 224 223 220
150 235 57 273 317 288 270 250 233 228 235 255 266 274 342 46 294 287 301 300 303 301 299 301 292 299 304 303 302 301 297 295 299 294 294 294 285 269 250 239 229 212 210 214
166 156 167 258 350 313 272 235 219 219 212 233 245 278 104 277 309 308 295 296 288 289 294 297 296 295 294 294 294 296 295 292 290 289 293 290 286 275 256 239 224 213 203 199
157 151 184 289 310 252 35 203 259 234 245 213 254 208 234 245 247 258 261 255 273 280 284 288 290 289 289 289 290 289 287 285 282 281 291 286 280 272 262 239 224 213 195 197
209 159 197 257 227 307 278 176 185 201 226 191 177 246 289 286 283 283 226 247 262 279 283 284 284 283 284 282 287 289 286 286 280 274 282 286 272 265 254 233 225 210 193 201
186 250 209 152 245 255 46 143 180 157 266 164 161 315 310 319 303 309 316 305 301 299 297 298 299 301 294 292 297 293 290 288 284 286 286 280 266 247 248 236 223 207 198 205
152 201 223 215 249 274 243 155 164 214 354 177 270 282 289 286 285 296 295 290 291 293 293 295 297 297 294 295 296 291 290 282 287 287 284 268 250 243 242 236 218 207 200 199
179 167 191 209 238 263 138 112 212 102 153 262 275 275 283 285 293 293 297 297 296 295 299 296 290 286 291 293 295 290 285 291 291 289 279 268 251 240 241 230 207 215 200 204
237 211 192 203 216 52 202 274 189 199 298 299 280 285 284 290 291 299 300 299 293 294 295 292 285 288 290 290 289 286 286 295 292 286 277 265 244 232 227 222 201 204 202 205
229 177 232 251 200 240 234 240 258 265 260 262 269 283 285 284 286 289 295 295 292 290 290 290 286 284 288 292 288 280 285 292 287 280 275 269 242 233 210 218 203 201 200 203
179 151 209 255 278 277 260 255 267 279 295 276 279 277 271 275 279 285 289 292 292 289 289 287 282 283 286 293 291 287 286 292 284 277 272 268 243 224 211 215 205 207 212 203
195 230 227 253 258 253 274 264 249 267 269 267 274 275 265 257 268 281 281 285 288 287 288 288 284 283 287 288 292 291 289 286 282 273 269 262 255 231 208 213 217 224 223 211